SXM-8

Last updated on Wed Nov 20 2024 00:02:43 GMT+0000 (Coordinated Universal Time)

1 48838U 21049A 24323.92034101 -.00000202 00000+0 00000+0 0 9994 2 48838 0.0318 47.8563 0004433 350.8356 265.9249 1.00270949 12824
UTC large
Height (km)
Speed (km/s)
/
Latitude / Longitude
Inclination (degrees)
Orbital Period (minutes)
Azimuth
Elevation
Range (km)
Doppler Factor

Next 0 passes for location: London (51.5072 / 0.1276)

Sorry there are no passes over London.